Hourly Weather Chabany

Today, 16 June, Wednesday

Time Temperature Precipitation Wind Pressure Humidity
00:00 +14°C° 0 mm 4 mps 733 mmHg 94%
01:00 +14°C° 0 mm 4 mps 733 mmHg 94%
02:00 +13°C° 0 mm 4 mps 733 mmHg 94%
03:00 +13°C° 0 mm 4 mps 733 mmHg 94%
04:00 +13°C° 0 mm 3 mps 733 mmHg 94%
05:00 +13°C° 0 mm 3 mps 733 mmHg 93%
06:00 +14°C° 0 mm 4 mps 733 mmHg 88%
07:00 +17°C° 0 mm 4 mps 733 mmHg 83%
08:00 +17°C° 0 mm 5 mps 733 mmHg 78%
09:00 +19°C° 0 mm 5 mps 734 mmHg 74%
10:00 +21°C° 0 mm 5 mps 734 mmHg 70%
11:00 +22°C° 0 mm 5 mps 734 mmHg 66%
12:00 +23°C° 0 mm 5 mps 734 mmHg 63%
13:00 +23°C° 0 mm 5 mps 734 mmHg 60%
14:00 +25°C° 0 mm 5 mps 734 mmHg 57%
15:00 +23°C° 0.2 mm 5 mps 734 mmHg 63%
16:00 +23°C° 0.2 mm 5 mps 734 mmHg 68%
17:00 +22°C° 0.2 mm 5 mps 734 mmHg 74%
18:00 +21°C° 0.2 mm 5 mps 734 mmHg 79%
19:00 +19°C° 0.2 mm 4 mps 734 mmHg 84%
20:00 +18°C° 0.2 mm 3 mps 734 mmHg 90%
21:00 +17°C° 0 mm 3 mps 734 mmHg 91%
22:00 +17°C° 0 mm 3 mps 735 mmHg 92%
23:00 +16°C° 0 mm 3 mps 735 mmHg 93%

Tomorrow, 17 June, Thursday

Time Temperature Precipitation Wind Pressure Humidity
00:00 +16°C° 0 mm 3 mps 735 mmHg 94%
01:00 +14°C° 0 mm 3 mps 735 mmHg 94%
02:00 +14°C° 0 mm 3 mps 735 mmHg 95%
03:00 +14°C° 0 mm 3 mps 735 mmHg 95%
04:00 +13°C° 0 mm 3 mps 735 mmHg 95%
05:00 +13°C° 0 mm 3 mps 735 mmHg 95%
06:00 +15°C° 0 mm 4 mps 736 mmHg 90%
07:00 +17°C° 0 mm 4 mps 736 mmHg 86%
08:00 +19°C° 0 mm 4 mps 737 mmHg 82%
09:00 +21°C° 0 mm 5 mps 737 mmHg 77%
10:00 +22°C° 0 mm 5 mps 737 mmHg 73%
11:00 +23°C° 0 mm 5 mps 737 mmHg 68%
12:00 +25°C° 0.1 mm 5 mps 737 mmHg 67%
13:00 +24°C° 0.1 mm 6 mps 737 mmHg 65%
14:00 +26°C° 0.1 mm 6 mps 737 mmHg 63%
15:00 +25°C° 0.2 mm 5 mps 737 mmHg 66%
16:00 +25°C° 0.2 mm 5 mps 737 mmHg 69%
17:00 +25°C° 0.2 mm 5 mps 737 mmHg 73%
18:00 +22°C° 0 mm 4 mps 737 mmHg 78%
19:00 +21°C° 0 mm 3 mps 737 mmHg 83%
20:00 +20°C° 0 mm 3 mps 737 mmHg 88%
21:00 +19°C° 0 mm 3 mps 737 mmHg 90%
22:00 +18°C° 0 mm 3 mps 738 mmHg 91%
23:00 +18°C° 0 mm 3 mps 738 mmHg 93%

Day after tomorrow, 18 June, Friday

Time Temperature Precipitation Wind Pressure Humidity
00:00 +17°C° 0 mm 3 mps 738 mmHg 94%
01:00 +17°C° 0 mm 3 mps 738 mmHg 95%
02:00 +17°C° 0 mm 3 mps 738 mmHg 96%
03:00 +17°C° 0 mm 3 mps 738 mmHg 96%
04:00 +16°C° 0 mm 3 mps 738 mmHg 97%
05:00 +16°C° 0 mm 3 mps 738 mmHg 97%
06:00 +18°C° 0 mm 3 mps 738 mmHg 92%
07:00 +19°C° 0 mm 4 mps 738 mmHg 86%
08:00 +21°C° 0 mm 5 mps 738 mmHg 81%
09:00 +22°C° 0 mm 5 mps 738 mmHg 77%
10:00 +23°C° 0 mm 5 mps 738 mmHg 73%
11:00 +25°C° 0 mm 5 mps 738 mmHg 69%
12:00 +25°C° 0 mm 5 mps 738 mmHg 66%
13:00 +26°C° 0 mm 5 mps 738 mmHg 64%
14:00 +26°C° 0 mm 5 mps 738 mmHg 62%
15:00 +26°C° 0 mm 5 mps 738 mmHg 67%
16:00 +25°C° 0 mm 5 mps 738 mmHg 71%
17:00 +25°C° 0 mm 5 mps 737 mmHg 75%
18:00 +23°C° 0 mm 5 mps 738 mmHg 78%
19:00 +22°C° 0 mm 5 mps 738 mmHg 81%
20:00 +21°C° 0 mm 5 mps 738 mmHg 83%
21:00 +20°C° 0 mm 4 mps 738 mmHg 87%
22:00 +19°C° 0 mm 4 mps 738 mmHg 91%
23:00 +18°C° 0 mm 3 mps 738 mmHg 95%

19 June, Saturday

Time Temperature Precipitation Wind Pressure Humidity
00:00 +18°C° 0 mm 3 mps 738 mmHg 96%
01:00 +17°C° 0 mm 3 mps 738 mmHg 97%
02:00 +17°C° 0 mm 3 mps 738 mmHg 98%
03:00 +17°C° 0 mm 3 mps 738 mmHg 98%
04:00 +17°C° 0 mm 3 mps 738 mmHg 97%
05:00 +16°C° 0 mm 2 mps 738 mmHg 97%
06:00 +18°C° 0.1 mm 3 mps 738 mmHg 93%
07:00 +20°C° 0.1 mm 4 mps 738 mmHg 88%
08:00 +21°C° 0.1 mm 4 mps 738 mmHg 83%
09:00 +22°C° 0.4 mm 5 mps 738 mmHg 80%
10:00 +23°C° 0.4 mm 6 mps 738 mmHg 76%
11:00 +23°C° 0.4 mm 7 mps 738 mmHg 73%
12:00 +23°C° 1 mm 6 mps 738 mmHg 75%
13:00 +23°C° 1 mm 6 mps 738 mmHg 77%
14:00 +23°C° 1 mm 6 mps 737 mmHg 79%
15:00 +22°C° 0.7 mm 5 mps 737 mmHg 81%
16:00 +22°C° 0.7 mm 5 mps 737 mmHg 83%
17:00 +22°C° 0.7 mm 4 mps 737 mmHg 85%
18:00 +21°C° 0.3 mm 4 mps 737 mmHg 87%
19:00 +20°C° 0.3 mm 3 mps 737 mmHg 90%
20:00 +19°C° 0.3 mm 3 mps 737 mmHg 92%
21:00 +19°C° 0 mm 3 mps 737 mmHg 93%
22:00 +18°C° 0 mm 3 mps 737 mmHg 94%
23:00 +17°C° 0 mm 2 mps 737 mmHg 95%

20 June, Sunday

Time Temperature Precipitation Wind Pressure Humidity
00:00 +17°C° 0 mm 2 mps 737 mmHg 95%
01:00 +17°C° 0 mm 2 mps 737 mmHg 95%
02:00 +17°C° 0 mm 2 mps 737 mmHg 95%
03:00 +17°C° 0 mm 2 mps 737 mmHg 95%
04:00 +17°C° 0 mm 2 mps 737 mmHg 95%
05:00 +18°C° 0 mm 2 mps 737 mmHg 95%
06:00 +18°C° 0 mm 3 mps 737 mmHg 93%
07:00 +19°C° 0 mm 3 mps 737 mmHg 90%
08:00 +20°C° 0 mm 4 mps 737 mmHg 88%
09:00 +22°C° 0.1 mm 4 mps 737 mmHg 81%
10:00 +23°C° 0.1 mm 5 mps 737 mmHg 74%
11:00 +25°C° 0.1 mm 5 mps 737 mmHg 67%
12:00 +26°C° 0 mm 5 mps 737 mmHg 65%
13:00 +26°C° 0 mm 5 mps 737 mmHg 63%
14:00 +27°C° 0 mm 5 mps 737 mmHg 62%
15:00 +26°C° 0 mm 5 mps 736 mmHg 65%
16:00 +26°C° 0 mm 5 mps 736 mmHg 68%
17:00 +26°C° 0 mm 4 mps 736 mmHg 71%
18:00 +23°C° 0 mm 4 mps 736 mmHg 77%
19:00 +22°C° 0 mm 3 mps 736 mmHg 82%
20:00 +21°C° 0 mm 3 mps 736 mmHg 88%
21:00 +20°C° 0 mm 3 mps 736 mmHg 90%
22:00 +19°C° 0 mm 2 mps 736 mmHg 91%
23:00 +18°C° 0 mm 2 mps 736 mmHg 93%

21 June, Monday

Time Temperature Precipitation Wind Pressure Humidity
00:00 +18°C° 0 mm 2 mps 735 mmHg 94%
01:00 +17°C° 0 mm 2 mps 735 mmHg 94%
02:00 +17°C° 0 mm 2 mps 735 mmHg 94%
03:00 +17°C° 0 mm 2 mps 735 mmHg 94%
04:00 +16°C° 0 mm 2 mps 735 mmHg 94%
05:00 +16°C° 0 mm 2 mps 735 mmHg 94%
06:00 +18°C° 0 mm 3 mps 735 mmHg 89%
07:00 +20°C° 0 mm 3 mps 735 mmHg 83%
08:00 +21°C° 0 mm 4 mps 735 mmHg 78%
09:00 +22°C° 0 mm 4 mps 735 mmHg 77%
10:00 +22°C° 0 mm 4 mps 734 mmHg 76%
11:00 +22°C° 0 mm 4 mps 734 mmHg 76%
12:00 +24°C° 0 mm 3 mps 734 mmHg 74%
13:00 +24°C° 0 mm 3 mps 734 mmHg 73%
14:00 +25°C° 0 mm 3 mps 733 mmHg 71%
15:00 +25°C° 0.2 mm 3 mps 733 mmHg 73%
16:00 +25°C° 0.2 mm 3 mps 733 mmHg 74%
17:00 +25°C° 0.2 mm 3 mps 733 mmHg 75%
18:00 +24°C° 0.4 mm 3 mps 732 mmHg 80%
19:00 +23°C° 0.4 mm 2 mps 732 mmHg 84%
20:00 +21°C° 0.4 mm 2 mps 732 mmHg 89%
21:00 +20°C° 0 mm 2 mps 732 mmHg 90%
22:00 +20°C° 0 mm 2 mps 732 mmHg 92%
23:00 +19°C° 0 mm 2 mps 731 mmHg 93%
Show more

We Need Your Consent

Meteoprog and our Service Providers may store and access personal data such as cookies, device identifiers or other similar technologies on your device and process such data to personalise content and ads, as well as provide social media features and to analyse the traffic.

  • Store and/or access information on your device

    Cookies, device identifiers or other information can be stored or accessed on your device for the purposes indicated above.

  • Personalised ads and content, ad and content measurement, audience insights, and products development

    Ads and content can be personalised based on a profile. More data can be added to better personalise ads and content. Ad and content performance can be measured. Insights about the audience who saw the ads and content can be derived. Such data can be used to develop or improve user’s experience, systems and software.

By clicking ‘I Agree’ you will allow the use of indicated cookies, device identifiers, web beacons or other similar technologies. Your settings can be changed in the browser on your device.

For certain purposes, legitimate interests may be relied on, rather than consent. You can read more about this in our Privacy and Cookie Policy.